| time (UTC) | temp C | wind direction | speed KPH | gust KPH | rain 1hr cm | rain 24hr cm | rain mn cm | humidity % | barometer mb |
| 20260503200905 | 1 | 0.0 | 0.0 | 0.00 | 0.00 | 0.00 | 986.6 | ||
| 20260503195903 | 1 | 0.0 | 0.0 | 0.00 | 0.00 | 0.00 | 986.6 | ||
| 20260503194901 | 1 | 0.0 | 0.0 | 0.00 | 0.00 | 0.00 | 986.6 | ||
| 20260503193859 | 2 | 0.0 | 0.0 | 0.00 | 0.00 | 0.00 | 986.6 | ||
| 20260503192856 | 2 | 0.0 | 0.0 | 0.00 | 0.00 | 0.00 | 986.4 | ||
| 20260503191854 | 2 | 0.0 | 0.0 | 0.00 | 0.00 | 0.00 | 986.5 | ||
| 20260503190852 | 2 | 0.0 | 0.0 | 0.00 | 0.00 | 0.00 | 986.5 | ||
| 20260503185850 | 3 | 0.0 | 0.0 | 0.00 | 0.00 | 0.00 | 986.4 | ||
| 20260503184847 | 4 | 0.0 | 0.0 | 0.00 | 0.00 | 0.00 | 986.3 | ||
| 20260503183845 | 5 | 0.0 | 0.0 | 0.00 | 0.00 | 0.00 | 986.2 | ||
| 20260503182844 | 5 | 0.0 | 0.0 | 0.00 | 0.00 | 0.00 | 986.2 | ||
| 20260503181841 | 4 | 0.0 | 0.0 | 0.00 | 0.00 | 0.00 | 986.3 | ||
| 20260503180838 | 5 | 0.0 | 0.0 | 0.00 | 0.00 | 0.00 | 986.1 | ||
| 20260503175836 | 6 | 0.0 | 0.0 | 0.00 | 0.00 | 0.00 | 986.1 | ||
| 20260503174834 | 5 | 0.0 | 0.0 | 0.00 | 0.00 | 0.00 | 986.0 | ||
| 20260503173832 | 5 | 0.0 | 0.0 | 0.00 | 0.00 | 0.00 | 985.8 | ||
| 20260503172829 | 7 | 0.0 | 0.0 | 0.00 | 0.00 | 0.00 | 985.9 | ||
| 20260503171827 | 8 | 0.0 | 0.0 | 0.00 | 0.00 | 0.00 | 986.1 | ||
| 20260503170825 | 8 | 0.0 | 0.0 | 0.00 | 0.00 | 0.00 | 985.5 | ||
| 20260503150758 | 10 | 0.0 | 0.0 | 0.00 | 0.00 | 0.00 | 985.2 | ||
| 20260503130732 | 9 | 0.0 | 0.0 | 0.00 | 0.00 | 0.00 | 984.4 | ||
| 20260503110705 | 7 | 0.0 | 0.0 | 0.00 | 0.00 | 0.00 | 983.9 | ||
| 20260503081627 | 2 | 0.0 | 0.0 | 0.00 | 0.00 | 0.00 | 982.9 | ||
| 20260503080624 | 2 | 0.0 | 0.0 | 0.00 | 0.00 | 0.00 | 982.9 | ||
| 20260503072615 | 1 | 0.0 | 0.0 | 0.00 | 0.00 | 0.00 | 982.7 | ||
| 20260503071613 | 1 | 0.0 | 0.0 | 0.00 | 0.00 | 0.00 | 982.8 | ||
| 20260503070611 | 1 | 0.0 | 0.0 | 0.00 | 0.00 | 0.00 | 982.6 | ||
| 20260503054553 | 0 | 0.0 | 0.0 | 0.00 | 0.00 | 0.00 | 982.6 | ||
| 20260503053551 | 0 | 0.0 | 0.0 | 0.00 | 0.00 | 0.00 | 982.5 | ||
| 20260503052548 | 0 | 0.0 | 0.0 | 0.00 | 0.00 | 0.00 | 982.5 | ||
| 20260503051546 | 0 | 0.0 | 0.0 | 0.00 | 0.00 | 0.00 | 982.2 | ||
| 20260503050544 | 0 | 0.0 | 0.0 | 0.00 | 0.00 | 0.00 | 982.2 | ||
| 20260503045542 | 0 | 0.0 | 0.0 | 0.00 | 0.00 | 0.00 | 982.3 | ||
| 20260503044539 | 0 | 0.0 | 0.0 | 0.00 | 0.00 | 0.00 | 982.4 | ||
| 20260503043537 | 0 | 0.0 | 0.0 | 0.00 | 0.00 | 0.00 | 982.3 | ||
| 20260503042535 | 0 | 0.0 | 0.0 | 0.00 | 0.00 | 0.00 | 982.3 | ||
| 20260503041533 | 0 | 0.0 | 0.0 | 0.00 | 0.00 | 0.00 | 982.4 | ||
| 20260503040530 | 0 | 0.0 | 0.0 | 0.00 | 0.00 | 0.00 | 982.3 | ||
| 20260503035528 | 0 | 0.0 | 0.0 | 0.00 | 0.00 | 0.00 | 982.3 | ||
| 20260503034526 | 0 | 0.0 | 0.0 | 0.00 | 0.00 | 0.00 | 982.3 | ||
| 20260503033524 | 0 | 0.0 | 0.0 | 0.00 | 0.00 | 0.00 | 982.2 | ||
| 20260503032522 | 0 | 0.0 | 0.0 | 0.00 | 0.00 | 0.00 | 982.2 | ||
| 20260503031519 | 0 | 0.0 | 0.0 | 0.00 | 0.00 | 0.00 | 982.2 | ||
| 20260503030517 | 0 | 0.0 | 0.0 | 0.00 | 0.00 | 0.00 | 982.2 | ||
| 20260503025515 | 0 | 0.0 | 0.0 | 0.00 | 0.00 | 0.00 | 982.3 | ||
| 20260503024513 | 0 | 0.0 | 0.0 | 0.00 | 0.00 | 0.00 | 982.3 | ||
| 20260503023510 | 0 | 0.0 | 0.0 | 0.00 | 0.00 | 0.00 | 982.3 | ||
| 20260503022508 | 0 | 0.0 | 0.0 | 0.00 | 0.00 | 0.00 | 982.1 | ||
| 20260503021506 | 0 | 0.0 | 0.0 | 0.00 | 0.00 | 0.00 | 982.2 | ||
| 20260503020504 | 0 | 0.0 | 0.0 | 0.00 | 0.00 | 0.00 | 982.1 | ||
| 20260503015501 | 0 | 0.0 | 0.0 | 0.00 | 0.00 | 0.00 | 982.1 | ||
| 20260503014459 | 0 | 0.0 | 0.0 | 0.00 | 0.00 | 0.00 | 982.1 | ||
| 20260503013457 | 0 | 0.0 | 0.0 | 0.00 | 0.00 | 0.00 | 982.2 | ||
| 20260503012455 | 0 | 0.0 | 0.0 | 0.00 | 0.00 | 0.00 | 982.2 | ||
| 20260503011453 | 0 | 0.0 | 0.0 | 0.00 | 0.00 | 0.00 | 982.1 | ||
| 20260503010450 | 0 | 0.0 | 0.0 | 0.00 | 0.00 | 0.00 | 982.1 | ||
| 20260503005448 | 0 | 0.0 | 0.0 | 0.00 | 0.00 | 0.00 | 981.9 | ||
| 20260503004446 | 0 | 0.0 | 0.0 | 0.00 | 0.00 | 0.00 | 982.3 | ||
| 20260503003444 | 0 | 0.0 | 0.0 | 0.00 | 0.00 | 0.00 | 982.0 | ||
| 20260503002441 | 0 | 0.0 | 0.0 | 0.00 | 0.00 | 0.00 | 982.0 | ||
| 20260503001439 | 0 | 0.0 | 0.0 | 0.00 | 0.00 | 0.00 | 982.1 | ||
| 20260503000437 | 0 | 0.0 | 0.0 | 0.00 | 0.00 | 0.00 | 982.0 | ||
| 20260502235435 | 0 | 0.0 | 0.0 | 0.00 | 0.00 | 0.00 | 982.1 | ||
| 20260502234433 | 0 | 0.0 | 0.0 | 0.00 | 0.00 | 0.00 | 982.4 | ||
| 20260502233430 | 0 | 0.0 | 0.0 | 0.00 | 0.00 | 0.00 | 982.2 | ||
| 20260502232428 | 1 | 0.0 | 0.0 | 0.00 | 0.00 | 0.00 | 982.0 | ||
| 20260502231426 | 1 | 0.0 | 0.0 | 0.00 | 0.00 | 0.00 | 981.9 | ||
| 20260502230424 | 1 | 0.0 | 0.0 | 0.00 | 0.00 | 0.00 | 981.8 | ||
| 20260502225421 | 1 | 0.0 | 0.0 | 0.00 | 0.00 | 0.00 | 982.2 | ||
| 20260502224419 | 1 | 0.0 | 0.0 | 0.00 | 0.00 | 0.00 | 981.8 | ||
| 20260502223417 | 1 | 0.0 | 0.0 | 0.00 | 0.00 | 0.00 | 981.6 | ||
| 20260502222415 | 1 | 0.0 | 0.0 | 0.00 | 0.00 | 0.00 | 981.5 | ||
| 20260502221413 | 1 | 0.0 | 0.0 | 0.00 | 0.00 | 0.00 | 981.4 | ||
| 20260502220410 | 1 | 0.0 | 0.0 | 0.00 | 0.00 | 0.00 | 981.3 | ||
| 20260502215408 | 1 | 0.0 | 0.0 | 0.00 | 0.00 | 0.00 | 981.2 | ||
| 20260502214406 | 1 | 0.0 | 0.0 | 0.00 | 0.00 | 0.00 | 981.2 | ||
| 20260502213404 | 1 | 0.0 | 0.0 | 0.00 | 0.00 | 0.00 | 981.3 | ||
| 20260502212401 | 1 | 0.0 | 0.0 | 0.00 | 0.00 | 0.00 | 980.8 | ||
| 20260502211359 | 2 | 0.0 | 0.0 | 0.00 | 0.00 | 0.00 | 980.8 | ||
| 20260502210357 | 2 | 0.0 | 0.0 | 0.00 | 0.00 | 0.00 | 980.8 | ||
| 20260502205355 | 2 | 0.0 | 0.0 | 0.00 | 0.00 | 0.00 | 980.9 | ||
| 20260502204352 | 2 | 0.0 | 0.0 | 0.00 | 0.00 | 0.00 | 980.8 | ||
| 20260502203350 | 2 | 0.0 | 0.0 | 0.00 | 0.00 | 0.00 | 981.0 | ||
| 20260502202348 | 2 | 0.0 | 0.0 | 0.00 | 0.00 | 0.00 | 981.2 | ||
| 20260502201346 | 2 | 0.0 | 0.0 | 0.00 | 0.00 | 0.00 | 980.7 |